Skip Page Navigation
NASA JPL Caltech
NASA Logo - Jet Propulsion Laboratory + View the NASA Portal
+ Near-Earth Object (NEO) Program
Search JPL
JPL Home Earth Solar System Stars & Galaxies Technology
JPL Solar System Dynamics
BODIES ORBITS EPHEMERIDES TOOLS PHYSICAL DATA DISCOVERY FAQ SITE MAP
JPL Small-Body Database Browser
Search: [ help ]  
14834 Isaev (1987 SR17)
Classification: Main-belt Asteroid          SPK-ID: 2014834
Ephemeris | Orbit Diagram | Orbital Elements | Physical Parameters | Discovery Circumstances ]

[ show orbit diagram ]
Orbital Elements at Epoch 2457000.5 (2014-Dec-09.0) TDB
Reference: JPL 7 (heliocentric ecliptic J2000)
 Element Value Uncertainty (1-sigma)   Units 
e .2365470944990191 6.9277e-08  
a 2.282121489498029 1.673e-08 AU
q 1.742292281863496 1.6549e-07 AU
i 4.505384315736372 6.3706e-06 deg
node 216.7560355838621 8.0005e-05 deg
peri 135.5598064205009 8.1122e-05 deg
M 328.357065262946 1.4745e-05 deg
tp 2457111.182974628139
(2015-Mar-29.68297463)
5.2144e-05 JED
period 1259.234366130721
3.45
1.3847e-05
3.791e-08
d
yr
n .2858880043960207 3.1438e-09 deg/d
Q 2.821950697132561 2.0688e-08 AU
  Orbit Determination Parameters
   # obs. used (total)      720  
   data-arc span      9811 days (26.86 yr)  
   first obs. used      1987-09-17  
   last obs. used      2014-07-28  
   planetary ephem.      DE431  
   SB-pert. ephem.      SB431-BIG16  
   condition code      0  
   fit RMS      .60138  
   data source      ORB  
   producer      Otto Matic  
   solution date      2014-Nov-10 13:23:05  

Additional Information
 Earth MOID = .740978 AU 
 T_jup = 3.563 
[ show covariance matrix ]

Ephemeris | Orbit Diagram | Orbital Elements | Physical Parameters | Discovery Circumstances ]

Physical Parameter Table
Parameter Symbol Value Units Sigma Reference Notes
absolute magnitude H 14.9 mag n/a MPO302157  

14834 Isaev           Discovered 1987 Sept. 17 by L. I. Chernykh at the Crimean Astrophysical Observatory.
Aleksej Mikhajlovich Isaev (1908-1971), the general designer and a laureate of many awards, was involved in the construction of liquid-propellant engines for many spacecraft, space apparatus and orbital stations.
NOTE: some special characters may not display properly (any characters within {} are an attempt to place the proper accent above a character)
Reference: 20080321/MPCPages.arcLast Updated: 2008-03-26

Alternate Designations
 1987 SR17 = 1994 VE3 
Ephemeris | Orbit Diagram | Orbital Elements | Physical Parameters | Discovery Circumstances ]
ABOUT SSD CREDITS/AWARDS PRIVACY/COPYRIGHT GLOSSARY LINKS
FirstGov 2014-Nov-24 04:57 UT
(server date/time)  
NASA Home Page
Site Manager:   Donald K. Yeomans
Webmaster  Alan B. Chamberlin